TimeEDT,TemperatureF,Dew PointF,Humidity,Sea Level PressureIn,VisibilityMPH,Wind Direction,Wind SpeedMPH,Gust SpeedMPH,PrecipitationIn,Events,Conditions,WindDirDegrees,DateUTC
12:05 AM,71.6,69.8,94,30.01,10.0,SE,8.1,-,0.00,Rain,Light Rain,140,2013-06-06 04:05:00
12:52 AM,71.1,70.0,96,29.99,7.0,SSE,8.1,-,0.01,Rain,Rain,150,2013-06-06 04:52:00
1:27 AM,71.6,69.8,94,29.99,7.0,SSE,8.1,-,0.04,Rain,Light Rain,150,2013-06-06 05:27:00
1:52 AM,71.1,70.0,96,29.96,9.0,SSE,8.1,-,0.04,,Overcast,150,2013-06-06 05:52:00
2:18 AM,71.6,69.8,94,29.97,6.0,SSE,8.1,-,0.01,Rain,Light Rain,150,2013-06-06 06:18:00
2:52 AM,70.0,69.1,97,29.94,10.0,South,3.5,-,0.05,Rain,Light Rain,180,2013-06-06 06:52:00
3:37 AM,69.8,69.8,100,29.95,10.0,Calm,Calm,-,0.00,,Overcast,0,2013-06-06 07:37:00
3:52 AM,70.0,69.1,97,29.92,9.0,South,4.6,-,0.00,,Overcast,170,2013-06-06 07:52:00
4:52 AM,71.1,69.1,93,29.91,10.0,SE,6.9,-,N/A,,Overcast,130,2013-06-06 08:52:00
5:52 AM,70.0,69.1,97,29.90,10.0,SE,9.2,-,N/A,,Overcast,140,2013-06-06 09:52:00
6:52 AM,71.1,69.1,93,29.90,10.0,ESE,10.4,-,N/A,,Overcast,120,2013-06-06 10:52:00
7:25 AM,71.6,69.8,94,29.92,10.0,SE,8.1,-,N/A,,Overcast,130,2013-06-06 11:25:00
7:52 AM,72.0,69.1,91,29.90,10.0,SE,11.5,-,N/A,,Overcast,130,2013-06-06 11:52:00
8:05 AM,71.6,69.8,94,29.92,3.0,SE,11.5,-,0.00,Rain,Light Rain,130,2013-06-06 12:05:00
8:52 AM,71.1,69.1,93,29.90,10.0,SE,11.5,-,0.01,,Overcast,140,2013-06-06 12:52:00
9:11 AM,71.6,69.8,94,29.92,10.0,SE,11.5,-,N/A,,Overcast,140,2013-06-06 13:11:00
9:19 AM,71.6,69.8,94,29.91,10.0,SE,11.5,-,N/A,,Overcast,140,2013-06-06 13:19:00
9:52 AM,73.0,71.1,93,29.89,10.0,SE,12.7,-,N/A,,Overcast,140,2013-06-06 13:52:00
10:20 AM,71.6,69.8,94,29.91,9.0,SSE,10.4,-,0.00,Rain,Light Rain,150,2013-06-06 14:20:00
10:39 AM,73.4,71.6,94,29.91,8.0,SSE,10.4,-,0.00,,Overcast,160,2013-06-06 14:39:00
10:52 AM,72.0,70.0,93,29.89,3.0,SSE,9.2,-,0.03,Rain,Heavy Rain,150,2013-06-06 14:52:00
11:52 AM,72.0,71.1,97,29.89,2.5,South,6.9,-,0.02,Rain,Light Rain,190,2013-06-06 15:52:00
12:07 PM,71.6,71.6,100,29.91,3.0,South,4.6,-,0.05,Rain,Light Rain,170,2013-06-06 16:07:00
12:52 PM,73.9,72.0,93,29.87,10.0,South,4.6,-,0.06,Rain,Light Rain,180,2013-06-06 16:52:00
12:59 PM,75.2,71.6,89,29.89,10.0,South,8.1,-,0.00,,Overcast,180,2013-06-06 16:59:00
1:52 PM,77.0,73.0,88,29.85,10.0,South,6.9,-,0.01,,Overcast,180,2013-06-06 17:52:00
2:24 PM,77.0,71.6,83,29.86,10.0,Variable,4.6,-,0.01,,Overcast,0,2013-06-06 18:24:00
2:33 PM,73.4,69.8,88,29.86,0.8,WSW,11.5,23.0,0.10,Rain,Heavy Rain,250,2013-06-06 18:33:00
2:46 PM,73.4,69.8,88,29.86,3.0,West,3.5,-,0.35,Rain,Rain,280,2013-06-06 18:46:00
2:52 PM,72.0,70.0,93,29.84,3.0,Calm,Calm,-,0.43,Rain,Rain,0,2013-06-06 18:52:00
2:59 PM,73.4,71.6,94,29.86,3.0,Calm,Calm,-,0.01,Rain,Light Rain,0,2013-06-06 18:59:00
3:52 PM,73.9,71.1,91,29.83,10.0,SSW,5.8,-,0.03,Rain,Light Rain,210,2013-06-06 19:52:00
4:52 PM,73.0,70.0,90,29.83,10.0,SW,10.4,-,0.21,,Overcast,220,2013-06-06 20:52:00
5:52 PM,72.0,69.1,91,29.83,10.0,SW,5.8,-,0.00,,Overcast,220,2013-06-06 21:52:00
6:52 PM,73.0,70.0,90,29.82,10.0,SSW,4.6,-,N/A,,Overcast,200,2013-06-06 22:52:00
7:52 PM,73.0,70.0,90,29.83,10.0,South,3.5,-,N/A,,Overcast,190,2013-06-06 23:52:00
8:28 PM,69.8,68.0,94,29.86,5.0,SSW,11.5,24.2,0.04,Rain,Heavy Rain,210,2013-06-07 00:28:00
8:52 PM,68.0,66.9,96,29.84,6.0,SSW,5.8,-,0.08,Rain,Rain,200,2013-06-07 00:52:00
9:52 PM,68.0,66.9,96,29.84,10.0,SSE,3.5,-,0.08,Rain,Light Rain,150,2013-06-07 01:52:00
10:52 PM,69.1,66.9,93,29.83,10.0,SE,4.6,-,0.01,Rain,Light Rain,140,2013-06-07 02:52:00
11:52 PM,69.1,66.9,93,29.82,10.0,Calm,Calm,-,0.01,Rain,Light Rain,0,2013-06-07 03:52:00